Location: *
(51.5000°N, 0.1100°W)
Time: 16:55:00
(UTC+00:00)

Cosmos 2322 - Pass Details

Date: 25 May 2024
Orbit: 839 x 854 km, 71.0° (Epoch: 16 June)

Event Time Altitude Azimuth Distance (km) Brightness Sun altitude
Rises 02:52:36 0° 329° (NNW) 3,432 7.1 -8.0°
Reaches altitude 10° 02:55:04 10° 328° (NNW) 2,490 6.4 -7.7°
Maximum altitude 03:00:47 83° 242° (WSW) 863 3.7 -7.1°
Drops below altitude 10° 03:06:28 10° 156° (SSE) 2,464 5.9 -6.5°
Sets 03:08:53 0° 155° (SSE) 3,393 6.6 -6.3°
